This demonstration page uses our WeatherBlox Daily Observations layout. Learn more.

Left ArrowRight Arrow

Hourly Observations for March 27, 2020

Temp ( °F °C ) Dew Point ( °F °C ) Humidity (%) Winds ( mph kmh ) Pressure ( in mb ) Visibility ( mi km ) Precip ( " mm )
12:16 am 00:16 Cloudy 52 11 52 11 100 100 ENE 7 11 29.83 1010 10 16 N/A
12:36 am 00:36 Cloudy 52 11 52 11 100 100 NE 6 9 29.82 1010 10 16 N/A
12:55 am 00:55 Cloudy 52 11 52 11 100 100 NNE 6 9 29.82 1010 10 16 N/A
1:16 am 01:16 Cloudy 52 11 52 11 100 100 NNE 7 11 29.83 1010 10 16 N/A
1:36 am 01:36 Cloudy 50 10 50 10 100 100 NNE 9 15 29.84 1011 7 11 N/A
1:55 am 01:55 Cloudy 52 11 52 11 100 100 ENE 8 13 29.83 1010 7 11 N/A
2:15 am 02:15 Cloudy 52 11 52 11 100 100 ENE 10 17 29.84 1010 5 8 N/A
2:35 am 02:35 Cloudy 52 11 52 11 100 100 ENE 8 13 29.83 1010 5 8 N/A
2:56 am 02:56 Cloudy 52 11 52 11 100 100 ENE 8 13 29.84 1010 5 8 N/A
3:15 am 03:15 Cloudy 52 11 52 11 100 100 ENE 7 11 29.83 1010 5 8 N/A
3:35 am 03:35 Cloudy 52 11 52 11 100 100 ENE 7 11 29.83 1010 5 8 N/A
3:55 am 03:55 Cloudy 52 11 52 11 100 100 NE 7 11 29.84 1010 5 8 N/A
4:15 am 04:15 Cloudy 52 11 52 11 100 100 NE 6 9 29.84 1010 7 11 N/A
4:36 am 04:36 Cloudy 52 11 52 11 100 100 NE 7 11 29.83 1010 7 11 N/A
4:55 am 04:55 Cloudy 50 10 50 10 100 100 ENE 7 11 29.84 1011 7 11 N/A
5:15 am 05:15 Cloudy 50 10 50 10 100 100 E 9 15 29.83 1010 7 11 N/A
5:35 am 05:35 Cloudy 52 11 52 11 100 100 E 7 11 29.83 1010 10 16 N/A
5:55 am 05:55 Cloudy 52 11 52 11 100 100 E 10 17 29.83 1010 10 16 N/A
6:15 am 06:15 Cloudy 52 11 52 11 100 100 E 9 15 29.83 1010 10 16 N/A
6:35 am 06:35 Cloudy 52 11 52 11 100 100 SE 9 15 29.85 1011 10 16 N/A
6:55 am 06:55 Cloudy 52 11 52 11 100 100 ESE 9 15 29.86 1011 10 16 N/A
7:16 am 07:16 Mostly Cloudy 52 11 52 11 100 100 SE 8 13 29.87 1011 10 16 N/A
7:35 am 07:35 Cloudy 52 11 52 11 100 100 SE 6 9 29.88 1012 10 16 N/A
7:56 am 07:56 Cloudy 50 10 50 10 100 100 ESE 6 9 29.87 1012 5 8 N/A
8:15 am 08:15 Cloudy 50 10 50 10 100 100 ENE 6 9 29.88 1012 5 8 N/A
8:35 am 08:35 Cloudy 50 10 50 10 100 100 NE 8 13 29.90 1013 4 6 N/A
8:55 am 08:55 Cloudy 50 10 50 10 100 100 NE 7 11 29.89 1012 2 3 N/A
9:15 am 09:15 Cloudy 50 10 50 10 100 100 ENE 9 15 29.87 1012 3 5 N/A
9:35 am 09:35 Cloudy 50 10 50 10 100 100 ESE 9 15 29.87 1012 3 5 N/A
9:56 am 09:56 Cloudy 50 10 50 10 100 100 E 9 15 29.86 1011 2 3 N/A
10:15 am 10:15 Cloudy 50 10 50 10 100 100 E 8 13 29.86 1011 4 6 N/A
10:35 am 10:35 Cloudy 50 10 50 10 100 100 E 10 17 29.83 1010 4 6 N/A
10:56 am 10:56 Cloudy 52 11 52 11 100 100 E 13 20 29.82 1010 5 8 N/A
11:15 am 11:15 Cloudy 52 11 52 11 100 100 E 12 19 29.83 1010 5 8 N/A
11:35 am 11:35 Cloudy 52 11 52 11 100 100 ESE 9 15 29.83 1010 7 11 N/A
11:56 am 11:56 Cloudy 54 12 54 12 100 100 E 9 15 29.83 1010 7 11 N/A
12:15 pm 12:15 Cloudy 54 12 54 12 100 100 E 8 13 29.83 1010 7 11 N/A
12:35 pm 12:35 Cloudy 54 12 54 12 100 100 ESE 8 13 29.82 1010 7 11 N/A
12:56 pm 12:56 Cloudy 54 12 54 12 100 100 ENE 8 13 29.86 1011 10 16 N/A
1:15 pm 13:15 Cloudy 54 12 54 12 100 100 E 9 15 29.85 1011 10 16 N/A
1:35 pm 13:35 Cloudy 54 12 54 12 100 100 ENE 3 6 29.87 1012 4 6 N/A
1:56 pm 13:56 Cloudy 54 12 54 12 100 100 E 7 11 29.87 1012 3 4 N/A
2:15 pm 14:15 Cloudy 55 13 55 13 100 100 E 8 13 29.86 1011 5 8 N/A
2:36 pm 14:36 Cloudy 55 13 55 13 100 100 ENE 10 17 29.85 1011 7 11 N/A
2:55 pm 14:55 Cloudy 55 13 55 13 100 100 ENE 9 15 29.85 1011 7 11 N/A
3:15 pm 15:15 Cloudy 55 13 55 13 100 100 E 10 17 29.84 1011 7 11 N/A
3:36 pm 15:36 Cloudy 55 13 55 13 100 100 E 9 15 29.84 1011 10 16 N/A
3:56 pm 15:56 Cloudy 57 14 57 14 100 100 E 9 15 29.82 1010 10 16 N/A
4:16 pm 16:16 Cloudy 57 14 57 14 100 100 ENE 8 13 29.82 1010 10 16 N/A
4:36 pm 16:36 Cloudy 57 14 57 14 100 100 NE 12 19 29.82 1010 10 16 N/A
4:55 pm 16:55 Cloudy 55 13 55 13 100 100 NE 15 24 29.83 1010 10 16 N/A
5:16 pm 17:16 Cloudy 55 13 55 13 100 100 ENE 14 22 29.84 1011 10 16 N/A
5:36 pm 17:36 Cloudy 55 13 55 13 100 100 ENE 15 24 29.82 1010 10 16 N/A
5:56 pm 17:56 Cloudy 55 13 55 13 100 100 E 13 20 29.82 1010 10 16 N/A
6:15 pm 18:15 Cloudy 55 13 55 13 100 100 E 9 15 29.82 1010 10 16 N/A
6:35 pm 18:35 Cloudy 55 13 55 13 100 100 ENE 10 17 29.82 1010 10 16 N/A
6:55 pm 18:55 Cloudy 55 13 55 13 100 100 E 8 13 29.82 1010 10 16 N/A
7:15 pm 19:15 Cloudy 55 13 55 13 100 100 E 8 13 29.84 1011 10 16 N/A
7:35 pm 19:35 Cloudy 55 13 55 13 100 100 E 8 13 29.84 1011 10 16 N/A
7:55 pm 19:55 Cloudy 55 13 55 13 100 100 E 9 15 29.84 1011 10 16 N/A
8:16 pm 20:16 Cloudy 55 13 55 13 100 100 E 9 15 29.83 1010 7 11 N/A
8:35 pm 20:35 Cloudy 55 13 55 13 100 100 E 9 15 29.84 1011 7 11 N/A
8:55 pm 20:55 Cloudy 55 13 55 13 100 100 E 7 11 29.86 1011 7 11 N/A
9:15 pm 21:15 Cloudy 54 12 54 12 100 100 E 8 13 29.84 1011 7 11 N/A
9:35 pm 21:35 Cloudy 54 12 54 12 100 100 ENE 6 9 29.86 1011 5 8 N/A
9:55 pm 21:55 Cloudy 54 12 54 12 100 100 E 6 9 29.86 1011 5 8 N/A
10:15 pm 22:15 Cloudy 54 12 54 12 100 100 E 7 11 29.85 1011 5 8 N/A
10:35 pm 22:35 Cloudy 54 12 54 12 100 100 ESE 9 15 29.83 1010 5 8 N/A
10:56 pm 22:56 Mostly Cloudy 55 13 55 13 100 100 ESE 7 11 29.82 1010 5 8 N/A
11:15 pm 23:15 Mostly Cloudy 55 13 55 13 100 100 SE 7 11 29.83 1010 5 8 N/A
11:35 pm 23:35 Cloudy 55 13 55 13 100 100 SE 9 15 29.79 1009 7 11 N/A
11:55 pm 23:55 Partly Cloudy 55 13 55 13 100 100 E 7 11 29.78 1008 7 11 N/A

Powered by AerisWeather